Kuchera_Ratio
0.0 0.0 0.0 2.4 3.2 6.5 7.2 5.5 8.4 5.0 4.1 1.1 0.0 0.0 0.0 0.0 0.0 0.0 0.0 0.0 0.0 0.0 0.0 0.0 0.0 0.0 0.0 0.0 0.0 0.0 0.0 1.0 4.1 5.0 5.0 5.8 2.4 1.6 1.6 3.5 4.5 4.8 5.2 3.8
3.0 0.0 0.0 2.2 2.0 3.0 3.3 5.0 5.6 5.0 3.7 0.0 0.0 0.0 0.0 0.0 0.0 0.0 0.0 0.0 0.0 0.0 0.0 0.0 0.0 0.0 0.0 0.0 0.0 0.0 0.0 2.2 3.0 4.2 4.4 6.0 3.0 2.2 3.8 5.8 6.8 7.4 7.2 5.8
9.6 1.2 2.1 6.0 0.8 2.3 3.3 3.3 1.8 6.5 0.0 0.0 0.0 0.0 0.0 0.0 0.0 0.0 0.0 0.0 0.0 0.0 0.0 0.0 0.0 0.0 0.0 0.0 0.0 0.0 0.0 2.0 3.0 4.0 5.4 6.4 2.0 3.0 6.8 8.8 9.0 9.8 8.6 7.6
8.4 3.7 12.9 0.0 0.0 0.0 0.0 0.0 0.0 0.0 0.0 0.0 0.0 0.0 0.0 0.0 0.0 0.0 0.0 0.0 0.0 0.0 0.0 0.0 0.0 0.0 0.0 0.0 0.0 0.0 0.8 3.0 3.8 4.8 6.2 6.6 5.2 4.6 7.4 8.0 9.8 9.4 9.6 9.2
11.2 12.1 3.7 0.0 0.0 0.0 0.0 0.0 0.0 0.0 0.0 0.0 0.0 0.0 0.0 0.0 0.0 0.0 0.0 0.0 0.0 0.0 0.0 0.0 0.0 0.0 0.0 0.0 0.0 0.4 2.0 3.8 4.2 5.4 7.2 8.2 8.4 5.8 5.6 8.4 10.2 9.8 8.2 9.8
7.6 11.5 11.6 0.0 0.0 0.0 0.0 1.3 0.0 0.0 0.0 0.0 0.0 0.6 0.0 0.0 0.0 0.0 0.0 0.0 0.0 0.0 0.0 0.0 0.0 0.0 0.0 0.4 1.2 2.0 2.6 4.4 4.6 6.4 8.2 9.4 9.0 7.4 7.6 10.6 10.0 9.8 10.4 10.4
10.9 12.1 5.6 0.0 0.0 0.0 3.5 0.0 0.0 0.0 0.0 0.0 0.0 0.0 0.0 0.0 0.0 0.0 0.0 0.0 0.0 0.0 0.0 0.0 0.0 0.0 0.3 1.4 2.6 1.6 1.0 3.2 4.8 7.2 8.4 9.6 10.8 10.8 11.2 11.8 12.1 12.8 12.2 12.1
7.7 13.4 9.6 0.0 0.0 0.0 0.0 0.0 0.0 0.0 0.0 0.0 0.0 0.0 0.0 0.0 0.0 0.0 0.0 0.0 0.0 0.0 0.0 0.0 0.0 0.0 1.3 2.7 1.8 1.0 2.4 4.0 6.8 9.2 8.6 8.0 5.8 12.0 12.2 12.7 12.4 12.7 12.3 12.6
3.9 1.3 0.0 0.0 0.0 0.0 0.0 0.0 0.0 0.0 0.0 0.0 0.0 0.0 0.0 0.0 0.0 0.0 0.0 0.0 0.0 0.0 0.0 0.0 0.0 0.0 1.7 2.6 1.6 2.8 5.0 7.0 9.6 9.6 10.2 10.4 9.0 9.0 12.9 12.9 12.5 11.8 12.7 13.7
0.0 0.0 0.0 0.0 0.0 0.0 0.0 0.0 0.0 0.0 0.0 0.0 0.0 0.0 0.0 0.0 0.0 0.0 0.0 0.0 0.0 0.0 0.0 0.0 0.0 0.8 2.4 2.0 2.0 4.4 7.8 9.2 10.2 11.8 11.8 12.3 12.4 11.4 13.0 12.8 12.2 12.6 13.1 14.0
0.0 0.0 0.0 0.0 0.0 0.0 0.0 0.0 0.0 0.0 0.0 0.0 0.0 0.0 0.0 0.0 0.0 0.0 0.0 0.0 0.0 0.0 0.0 0.0 1.2 2.8 2.6 4.2 4.8 7.0 9.4 9.6 10.8 11.4 12.5 12.4 12.5 12.9 12.9 12.2 10.0 13.0 13.5 13.6
0.0 0.0 0.0 0.0 0.0 0.0 0.0 0.0 0.0 0.0 0.0 0.0 0.0 0.0 0.0 0.0 0.0 0.0 0.0 0.0 0.0 0.0 0.0 0.5 2.6 4.0 4.4 4.4 6.8 9.6 10.0 10.4 11.6 12.1 12.2 12.3 12.6 12.6 9.4 8.4 7.0 7.4 7.6 10.6
0.0 0.0 0.0 0.0 0.0 0.0 0.0 0.0 0.0 0.0 0.0 0.0 0.0 0.0 0.0 0.0 0.0 0.0 0.0 0.0 0.0 0.0 0.0 1.1 4.1 5.6 5.6 5.6 7.2 8.2 11.0 10.4 11.2 11.5 11.8 12.3 12.6 12.6 13.9 13.1 9.2 8.6 8.2 8.4
0.0 0.0 0.0 0.0 0.0 0.0 0.0 0.0 0.0 0.0 0.0 0.0 0.0 0.0 0.0 0.0 0.0 0.0 0.0 0.0 0.0 0.0 0.4 1.5 4.4 6.4 6.2 6.3 7.6 9.2 10.0 10.3 10.1 10.5 11.0 11.1 11.8 12.2 12.8 14.5 15.0 14.5 12.6 10.6
0.0 0.0 0.0 0.0 0.0 0.0 0.0 0.0 0.0 0.0 0.0 0.0 0.0 0.0 0.0 0.0 0.0 0.0 0.0 0.0 0.0 0.0 1.6 2.4 5.1 6.8 6.4 6.7 8.2 9.5 9.0 9.5 9.6 9.8 10.9 11.7 12.2 12.6 13.2 13.8 14.6 15.3 15.8 14.5
0.0 0.0 0.0 0.0 0.0 0.0 0.0 0.0 0.0 0.0 0.0 0.0 0.0 0.0 0.0 0.0 0.0 0.0 0.0 0.0 0.0 0.9 1.7 3.5 4.6 5.3 6.5 7.1 8.6 9.4 9.2 9.2 10.2 11.0 11.7 12.4 12.8 13.3 13.9 14.5 15.3 15.8 16.3 16.6
0.0 0.0 0.0 0.0 0.0 0.0 0.0 0.0 0.0 0.0 0.0 0.0 0.0 0.0 0.0 0.0 0.0 0.0 0.0 0.0 0.0 0.0 1.3 2.9 3.6 5.2 6.3 7.3 7.8 8.4 9.0 9.4 10.9 11.6 12.4 13.0 13.3 13.9 14.3 14.9 15.7 16.2 16.7 16.9
0.0 0.0 0.0 0.0 0.0 0.0 0.0 0.0 0.0 0.0 0.0 0.0 0.0 0.0 0.0 0.0 0.0 0.0 0.0 0.0 0.0 1.5 2.3 2.0 3.3 4.9 6.5 7.1 7.3 8.7 9.1 9.9 11.1 12.2 12.8 13.3 13.7 14.2 14.8 15.4 16.0 16.7 17.1 16.8
0.0 0.0 0.0 0.0 0.0 0.0 0.0 0.0 0.0 0.0 0.0 0.0 0.0 0.0 0.0 0.0 0.0 0.0 0.0 0.0 0.4 2.1 2.0 2.5 3.0 4.6 5.9 6.7 7.5 8.5 9.1 10.3 11.8 12.7 13.1 13.8 14.2 14.7 15.2 15.8 16.4 17.0 17.4 18.0
0.0 0.0 0.0 0.0 0.0 0.0 0.0 0.0 0.0 0.0 0.0 0.0 0.0 0.0 0.0 0.0 0.0 0.0 0.0 0.0 0.0 0.0 0.0 0.7 3.2 4.8 5.4 6.3 7.5 8.2 9.4 10.5 12.1 12.9 13.5 14.1 14.7 15.2 15.7 16.2 16.8 17.4 17.8 18.4
0.0 0.0 0.0 0.0 0.0 0.0 0.0 0.0 0.0 0.0 0.0 0.0 0.0 0.0 0.0 0.0 0.0 0.0 0.0 0.0 0.0 0.0 0.0 0.0 2.0 3.6 5.0 6.1 7.8 8.7 9.8 11.3 12.4 13.2 13.8 14.5 15.0 15.5 16.1 16.6 17.2 17.8 18.3 18.7
0.0 0.0 0.0 0.0 0.0 0.0 0.0 0.0 0.0 0.0 0.0 0.0 0.0 0.0 0.0 0.0 0.0 0.0 0.0 0.0 0.0 0.0 0.1 0.7 1.9 3.3 4.3 5.8 7.4 9.1 10.5 12.0 12.7 13.5 14.2 14.7 15.3 15.8 16.3 16.9 17.5 18.0 18.5 19.1
0.0 0.0 0.0 0.0 0.0 0.0 0.0 0.0 0.0 0.0 0.0 0.0 0.0 0.0 0.0 0.0 0.0 0.0 0.0 0.0 0.0 0.0 0.1 1.2 2.1 3.6 4.7 6.5 8.0 9.3 11.0 12.3 13.1 13.8 14.3 14.8 15.4 15.9 16.4 17.0 17.6 18.2 18.7 19.2
0.0 0.0 0.0 0.0 0.0 0.0 0.0 0.0 0.0 0.0 0.0 0.0 0.0 0.0 0.0 0.0 0.0 0.0 0.0 0.0 0.0 0.0 0.0 0.7 2.5 4.2 6.1 7.0 8.5 10.0 11.7 12.7 13.5 14.0 14.5 15.0 15.5 16.0 16.5 17.0 17.5 18.2 18.7 19.2
0.0 0.0 0.0 0.0 0.0 0.0 0.0 0.0 0.0 0.0 0.0 0.0 0.0 0.0 0.0 0.0 0.0 0.0 0.0 0.0 0.0 0.0 0.6 1.5 2.7 4.3 6.3 7.4 8.9 10.8 12.2 13.0 13.6 14.1 14.5 15.1 15.6 16.2 16.6 17.1 17.5 18.0 18.4 18.9
0.0 0.0 0.0 0.0 0.0 0.0 0.0 0.0 0.0 0.0 0.0 0.0 0.0 0.0 0.0 0.0 0.0 0.0 0.0 0.0 0.0 0.0 0.3 2.5 3.9 5.4 6.8 8.2 10.0 11.8 12.6 13.4 13.9 14.2 14.5 15.0 15.7 16.4 16.7 17.2 17.5 17.9 18.2 18.5
0.0 0.0 0.0 0.0 0.0 0.0 0.0 0.0 0.0 0.0 0.0 0.0 0.0 0.0 0.0 0.0 0.0 0.0 0.0 0.0 0.0 1.4 2.5 4.0 5.4 7.1 8.2 9.6 11.7 12.5 12.9 13.6 14.0 14.2 14.5 15.0 15.7 16.1 16.7 17.2 17.5 17.7 17.7 17.8